Hourly Weather Bobo-Dioulasso

Today, 6 August, Thursday

Time Temperature Precipitation Wind Pressure Humidity
00:00 +24°C° 0 mm 1 mps 724 mmHg 85%
01:00 +24°C° 0 mm 2 mps 724 mmHg 86%
02:00 +23°C° 0 mm 2 mps 723 mmHg 87%
03:00 +23°C° 0 mm 2 mps 722 mmHg 88%
04:00 +23°C° 0 mm 2 mps 723 mmHg 89%
05:00 +23°C° 0 mm 2 mps 723 mmHg 89%
06:00 +23°C° 0 mm 2 mps 723 mmHg 90%
07:00 +24°C° 0 mm 3 mps 724 mmHg 85%
08:00 +25°C° 0 mm 3 mps 724 mmHg 81%
09:00 +27°C° 0 mm 3 mps 724 mmHg 77%
10:00 +27°C° 0 mm 4 mps 724 mmHg 74%
11:00 +28°C° 0 mm 4 mps 724 mmHg 71%
12:00 +29°C° 0 mm 4 mps 724 mmHg 68%
13:00 +29°C° 0.1 mm 4 mps 723 mmHg 68%
14:00 +30°C° 0.1 mm 4 mps 723 mmHg 67%
15:00 +30°C° 0.1 mm 4 mps 722 mmHg 67%
16:00 +29°C° 0.5 mm 4 mps 722 mmHg 72%
17:00 +29°C° 0.5 mm 3 mps 722 mmHg 77%
18:00 +28°C° 0.5 mm 2 mps 722 mmHg 81%
19:00 +27°C° 0.1 mm 2 mps 723 mmHg 84%
20:00 +26°C° 0.1 mm 2 mps 723 mmHg 86%
21:00 +25°C° 0.1 mm 2 mps 724 mmHg 89%
22:00 +25°C° 0 mm 2 mps 724 mmHg 90%
23:00 +24°C° 0 mm 3 mps 724 mmHg 90%

Tomorrow, 7 August, Friday

Time Temperature Precipitation Wind Pressure Humidity
00:00 +24°C° 0 mm 3 mps 724 mmHg 91%
01:00 +24°C° 0 mm 3 mps 724 mmHg 91%
02:00 +23°C° 0 mm 2 mps 723 mmHg 91%
03:00 +23°C° 0 mm 2 mps 723 mmHg 91%
04:00 +23°C° 0 mm 2 mps 723 mmHg 92%
05:00 +23°C° 0 mm 2 mps 723 mmHg 92%
06:00 +21°C° 0 mm 2 mps 723 mmHg 92%
07:00 +24°C° 0 mm 3 mps 724 mmHg 88%
08:00 +25°C° 0 mm 3 mps 724 mmHg 84%
09:00 +27°C° 0 mm 3 mps 725 mmHg 80%
10:00 +28°C° 0.1 mm 3 mps 725 mmHg 76%
11:00 +29°C° 0.1 mm 4 mps 725 mmHg 72%
12:00 +30°C° 0.1 mm 4 mps 725 mmHg 69%
13:00 +29°C° 1.2 mm 4 mps 724 mmHg 71%
14:00 +29°C° 1.2 mm 3 mps 723 mmHg 74%
15:00 +28°C° 1.2 mm 3 mps 723 mmHg 76%
16:00 +27°C° 0.4 mm 3 mps 723 mmHg 80%
17:00 +27°C° 0.4 mm 2 mps 723 mmHg 84%
18:00 +26°C° 0.4 mm 2 mps 723 mmHg 88%
19:00 +25°C° 0 mm 1 mps 723 mmHg 89%
20:00 +25°C° 0 mm 1 mps 723 mmHg 90%
21:00 +25°C° 0 mm 1 mps 724 mmHg 91%
22:00 +25°C° 0 mm 1 mps 724 mmHg 90%
23:00 +25°C° 0 mm 2 mps 724 mmHg 90%

Day after tomorrow, 8 August, Saturday

Time Temperature Precipitation Wind Pressure Humidity
00:00 +25°C° 0 mm 2 mps 724 mmHg 90%
01:00 +24°C° 0.2 mm 2 mps 724 mmHg 91%
02:00 +24°C° 0.2 mm 3 mps 724 mmHg 93%
03:00 +24°C° 0.2 mm 3 mps 723 mmHg 94%
04:00 +24°C° 0.1 mm 3 mps 723 mmHg 94%
05:00 +24°C° 0.1 mm 3 mps 724 mmHg 95%
06:00 +23°C° 0.1 mm 2 mps 724 mmHg 95%
07:00 +24°C° 0.2 mm 3 mps 724 mmHg 93%
08:00 +24°C° 0.2 mm 3 mps 725 mmHg 91%
09:00 +25°C° 0.2 mm 4 mps 725 mmHg 89%
10:00 +25°C° 0 mm 4 mps 725 mmHg 86%
11:00 +26°C° 0 mm 4 mps 725 mmHg 84%
12:00 +26°C° 0 mm 4 mps 725 mmHg 82%
13:00 +26°C° 0.2 mm 4 mps 724 mmHg 82%
14:00 +26°C° 0.2 mm 4 mps 724 mmHg 82%
15:00 +26°C° 0.2 mm 4 mps 723 mmHg 81%
16:00 +26°C° 0.1 mm 4 mps 723 mmHg 83%
17:00 +25°C° 0.1 mm 4 mps 724 mmHg 84%
18:00 +25°C° 0.1 mm 4 mps 724 mmHg 85%
19:00 +24°C° 0 mm 3 mps 724 mmHg 87%
20:00 +24°C° 0 mm 3 mps 725 mmHg 89%
21:00 +22°C° 0 mm 3 mps 725 mmHg 91%
22:00 +23°C° 0 mm 2 mps 725 mmHg 92%
23:00 +23°C° 0 mm 2 mps 725 mmHg 93%

9 August, Sunday

Time Temperature Precipitation Wind Pressure Humidity
00:00 +23°C° 0 mm 2 mps 725 mmHg 94%
01:00 +21°C° 0 mm 2 mps 724 mmHg 94%
02:00 +21°C° 0 mm 2 mps 724 mmHg 95%
03:00 +21°C° 0 mm 2 mps 724 mmHg 95%
04:00 +21°C° 0 mm 2 mps 724 mmHg 95%
05:00 +21°C° 0 mm 2 mps 724 mmHg 95%
06:00 +21°C° 0 mm 2 mps 724 mmHg 95%
07:00 +22°C° 0 mm 3 mps 724 mmHg 90%
08:00 +24°C° 0 mm 3 mps 725 mmHg 85%
09:00 +26°C° 0 mm 4 mps 725 mmHg 80%
10:00 +27°C° 0 mm 4 mps 725 mmHg 75%
11:00 +28°C° 0 mm 4 mps 725 mmHg 71%
12:00 +30°C° 0 mm 4 mps 724 mmHg 67%
13:00 +30°C° 0.5 mm 3 mps 724 mmHg 67%
14:00 +30°C° 0.5 mm 3 mps 723 mmHg 68%
15:00 +30°C° 0.5 mm 3 mps 722 mmHg 68%
16:00 +29°C° 0.8 mm 2 mps 722 mmHg 73%
17:00 +29°C° 0.8 mm 2 mps 722 mmHg 77%
18:00 +28°C° 0.8 mm 1 mps 722 mmHg 82%
19:00 +27°C° 1 mm 1 mps 722 mmHg 84%
20:00 +26°C° 1 mm 1 mps 723 mmHg 86%
21:00 +25°C° 1 mm 1 mps 723 mmHg 87%
22:00 +25°C° 0.2 mm 2 mps 723 mmHg 88%
23:00 +25°C° 0.2 mm 2 mps 723 mmHg 89%

10 August, Monday

Time Temperature Precipitation Wind Pressure Humidity
00:00 +24°C° 0.2 mm 2 mps 723 mmHg 90%
01:00 +24°C° 0.2 mm 2 mps 723 mmHg 91%
02:00 +24°C° 0.2 mm 2 mps 722 mmHg 92%
03:00 +24°C° 0.2 mm 2 mps 722 mmHg 93%
04:00 +24°C° 0 mm 3 mps 722 mmHg 93%
05:00 +24°C° 0 mm 3 mps 722 mmHg 93%
06:00 +22°C° 0 mm 3 mps 722 mmHg 93%
07:00 +23°C° 0 mm 4 mps 723 mmHg 90%
08:00 +25°C° 0 mm 4 mps 723 mmHg 88%
09:00 +26°C° 0 mm 5 mps 724 mmHg 85%
10:00 +26°C° 0.4 mm 5 mps 723 mmHg 83%
11:00 +26°C° 0.4 mm 5 mps 723 mmHg 82%
12:00 +27°C° 0.4 mm 5 mps 723 mmHg 81%
13:00 +27°C° 0.7 mm 4 mps 722 mmHg 79%
14:00 +28°C° 0.7 mm 4 mps 722 mmHg 78%
15:00 +28°C° 0.7 mm 4 mps 722 mmHg 77%
16:00 +27°C° 0.8 mm 3 mps 721 mmHg 80%
17:00 +27°C° 0.8 mm 2 mps 721 mmHg 84%
18:00 +26°C° 0.8 mm 2 mps 721 mmHg 87%
19:00 +25°C° 2.1 mm 2 mps 722 mmHg 89%
20:00 +25°C° 2.1 mm 2 mps 722 mmHg 90%
21:00 +25°C° 2.1 mm 2 mps 723 mmHg 91%
22:00 +24°C° 1.3 mm 2 mps 723 mmHg 93%
23:00 +24°C° 1.3 mm 2 mps 723 mmHg 94%

11 August, Tuesday

Time Temperature Precipitation Wind Pressure Humidity
00:00 +24°C° 1.3 mm 2 mps 723 mmHg 95%
01:00 +24°C° 1.4 mm 2 mps 722 mmHg 95%
02:00 +24°C° 1.4 mm 3 mps 722 mmHg 96%
03:00 +24°C° 1.4 mm 3 mps 722 mmHg 96%
04:00 +22°C° 0.4 mm 3 mps 722 mmHg 95%
05:00 +22°C° 0.4 mm 3 mps 722 mmHg 95%
06:00 +22°C° 0.4 mm 3 mps 722 mmHg 94%
07:00 +22°C° 0.5 mm 3 mps 723 mmHg 94%
08:00 +23°C° 0.5 mm 4 mps 723 mmHg 93%
09:00 +23°C° 0.5 mm 4 mps 724 mmHg 93%
10:00 +23°C° 0.2 mm 4 mps 724 mmHg 91%
11:00 +25°C° 0.2 mm 4 mps 724 mmHg 88%
12:00 +26°C° 0.2 mm 5 mps 724 mmHg 86%
13:00 +26°C° 0.1 mm 5 mps 723 mmHg 84%
14:00 +27°C° 0.1 mm 5 mps 722 mmHg 82%
15:00 +27°C° 0.1 mm 5 mps 722 mmHg 79%
16:00 +27°C° 0.1 mm 4 mps 722 mmHg 81%
17:00 +26°C° 0.1 mm 4 mps 722 mmHg 83%
18:00 +26°C° 0.1 mm 4 mps 722 mmHg 85%
19:00 +25°C° 0 mm 3 mps 722 mmHg 87%
20:00 +24°C° 0 mm 3 mps 723 mmHg 88%
21:00 +24°C° 0 mm 3 mps 723 mmHg 90%
22:00 +24°C° 0 mm 3 mps 723 mmHg 90%
23:00 +24°C° 0 mm 3 mps 723 mmHg 91%
Show more